Location: El Mouella
(16.4949°N, 9.1594°W)
Time: 19:42:24
(UTC+00:00)

Resurs 1-3 - Pass Details

Date: 02 June 2020
Orbit: 629 x 632 km, 97.9° (Epoch: 06 July)

Event Time Altitude Azimuth Distance (km) Brightness Sun altitude
Exits shadow 21:13:01 48° 0° (N) 824 4.3 -27.2°
Drops below altitude 10° 21:16:12 10° 352° (N) 2,009 6.7 -27.8°
Sets 21:18:24 0° 351° (N) 2,918 7.7 -28.2°
